953  
FPUS82 KCHS 171827  
OPUCHS  
 
TEST   
..KCHS/KSAV GATEWAY OBSERVATIONS
 
TEST  
NATIONAL WEATHER SERVICE CHARLESTON SC  
200 PM EDT TUE OCT 17 2017  
 
NOTE: "FAIR" INDICATES FEW OR NO CLOUDS BELOW 12,000 FEET WITH NO  
SIGNIFICANT WEATHER AND/OR OBSTRUCTIONS TO VISIBILITY.  
 
SCZ050-WAZ558-NCZ071-TXZ119-213-PAZ071-DCZ001-FLZ074-172-MI076-  
NYZ176-178-MAZ016-IL014-TNZ027-NJZ106-GAZ044-MD014-171900-  
   
..GATEWAY OBSERVATIONS FOR CHARLESTON INTERNATIONAL
 
 
 
CITY SKY/WX TMP DP RH WIND PRES REMARKS  
CHAS AIRPORT CLOUDY 64 46 52 NE18 30.25F  
6HR MIN TEMP: 54; 6HR MAX TEMP: 65;  
 
SEATTLE LGT RAIN 54 51 90 S24G33 29.99R  
6HR MIN TEMP: 50; 6HR MAX TEMP: 55; 6HR PCP: 0.06;  
 
CHARLOTTE MOSUNNY 64 39 39 VRB3 30.33F  
6HR MIN TEMP: 45; 6HR MAX TEMP: 66;  
 
DALLAS DFW SUNNY 72 40 31 S9 30.26F  
6HR MIN TEMP: 50; 6HR MAX TEMP: 73;  
 
DALLAS LOVE SUNNY 69 41 36 S9 30.27F  
6HR MIN TEMP: 53; 6HR MAX TEMP: 70;  
 
PHILLADELPHIA SUNNY 58 31 35 NW7 30.31F  
6HR MIN TEMP: 43; 6HR MAX TEMP: 58;  
 
WASH NATIONAL SUNNY 60 33 36 NE5 30.34F  
6HR MIN TEMP: 48; 6HR MAX TEMP: 61;  
 
BALTIMORE MOSUNNY 59 32 36 VRB3 30.32F  
6HR MIN TEMP: 41; 6HR MAX TEMP: 60;  
 
MIAMI MOSUNNY 89 73 59 E13G20 29.97F HX 97  
6HR MIN TEMP: 79; 6HR MAX TEMP: 89;  
 
DETROIT PTSUNNY 67 41 38 SW22 30.19F  
6HR MIN TEMP: 43; 6HR MAX TEMP: 67; 6HR PCP: TRACE;  
 
NEWARK SUNNY 59 31 34 CALM 30.29F  
6HR MIN TEMP: 44; 6HR MAX TEMP: 59;  
 
LAGUARDIA SUNNY 58 29 33 CALM 30.29F  
6HR MIN TEMP: 46; 6HR MAX TEMP: 58;  
 
J F K MOSUNNY 58 29 33 W6 30.30F  
6HR MIN TEMP: 45; 6HR MAX TEMP: 58;  
 
BOSTON LOGAN MOSUNNY 56 29 35 NW5 30.25F  
6HR MIN TEMP: 42; 6HR MAX TEMP: 56;  
 
FT. LAUDERDALE PTSUNNY 86 75 69 E12 29.97F HX 95  
6HR MIN TEMP: 77; 6HR MAX TEMP: 87;  
 
CHICAGO O'HARE MOSUNNY 67 42 40 SW15G26 30.16F  
6HR MIN TEMP: 50; 6HR MAX TEMP: 67;  
 
CHICAGO MIDWAY MOSUNNY 68 43 40 SW21G28 30.18F  
6HR MIN TEMP: 49; 6HR MAX TEMP: 68;  
 
HOUSTON BUSH SUNNY 73 46 38 NE10 30.24F  
6HR MIN TEMP: 51; 6HR MAX TEMP: 74;  
 
HOUSTON HOBBY SUNNY 74 45 35 NE6 30.22F  
6HR MIN TEMP: 57; 6HR MAX TEMP: 75;  
 
NASHVILLE MOSUNNY 66 39 37 E3 30.33F  
6HR MIN TEMP: 42; 6HR MAX TEMP: 66;  
 
ATLANTA SUNNY 65 41 41 E5 30.30F  
6HR MIN TEMP: 51; 6HR MAX TEMP: 66;  
 

 
 
GAZ044-118-TXZ119-213-NCZ071-DCZ001-MDZ014-506-PAZ021-071-NJZ106-  
NYZ176-178-MAZ106-OHZ011-021-055-MIZ076-KYZ091-ILZ014-INZ047-  
MNZ060-ONZ431-171900-  
   
..GATEWAY OBSERVATIONS FOR SAVANNAH INTERNATIONAL
 
 
 
CITY SKY/WX TMP DP RH WIND PRES REMARKS  
SAVANNAH ARPT CLOUDY 68 47 46 NE12 30.24F  
6HR MIN TEMP: 56; 6HR MAX TEMP: 69;  
 
ATLANTA SUNNY 65 41 41 E5 30.30F  
6HR MIN TEMP: 51; 6HR MAX TEMP: 66;  
 
CHARLOTTE MOSUNNY 64 39 39 VRB3 30.33F  
6HR MIN TEMP: 45; 6HR MAX TEMP: 66;  
 
DALLAS DFW SUNNY 72 40 31 S9 30.26F  
6HR MIN TEMP: 50; 6HR MAX TEMP: 73;  
 
HOUSTON BUSH SUNNY 73 46 38 NE10 30.24F  
6HR MIN TEMP: 51; 6HR MAX TEMP: 74;  
 
WASH NATIONAL SUNNY 60 33 36 NE5 30.34F  
6HR MIN TEMP: 48; 6HR MAX TEMP: 61;  
 
WASH DULLES SUNNY 60 31 33 N8 30.33F  
6HR MIN TEMP: 38; 6HR MAX TEMP: 60;  
 
BALTIMORE MOSUNNY 59 32 36 VRB3 30.32F  
6HR MIN TEMP: 41; 6HR MAX TEMP: 60;  
 
PHILADELPHIA SUNNY 58 31 35 NW7 30.31F  
6HR MIN TEMP: 43; 6HR MAX TEMP: 58;  
 
NEWARK SUNNY 59 31 34 CALM 30.29F  
6HR MIN TEMP: 44; 6HR MAX TEMP: 59;  
 
LAGUARDIA SUNNY 58 29 33 CALM 30.29F  
6HR MIN TEMP: 46; 6HR MAX TEMP: 58;  
 
J F K MOSUNNY 58 29 33 W6 30.30F  
6HR MIN TEMP: 45; 6HR MAX TEMP: 58;  
 
BOSTON MOSUNNY 56 29 35 NW5 30.25F  
6HR MIN TEMP: 42; 6HR MAX TEMP: 56;  
 
PITTSBURG MOSUNNY 59 37 44 S10G17 30.30F  
6HR MIN TEMP: 36; 6HR MAX TEMP: 60;  
 
AKRON MOSUNNY 63 38 39 SW14 30.28F  
6HR MIN TEMP: 39; 6HR MAX TEMP: 63;  
 
CLEVELAND MOSUNNY 66 39 37 SW14G28 30.27F  
6HR MIN TEMP: 45; 6HR MAX TEMP: 66;  
 
CINCINNATI MOSUNNY 62 40 44 S9G18 30.32F  
6HR MIN TEMP: 38; 6HR MAX TEMP: 63;  
 
COLUMBUS SUNNY 64 39 40 SW8G17 30.29F  
DETROIT PTSUNNY 67 41 38 SW22 30.19F  
6HR MIN TEMP: 43; 6HR MAX TEMP: 67; 6HR PCP: TRACE;  
 
CHICAGO O'HARE MOSUNNY 67 42 40 SW15G26 30.16F  
6HR MIN TEMP: 50; 6HR MAX TEMP: 67;  
 
MINNEAPOLIS MOSUNNY 65 46 50 SW7 30.01F  
6HR MIN TEMP: 47; 6HR MAX TEMP: 65;  
 
INDIANAPOLIS MOSUNNY 65 40 39 SW13 30.29F  
6HR MIN TEMP: 42; 6HR MAX TEMP: 65;  
 
TORONTO CANADA MOSUNNY 64 39 39 SW17G28 30.09F  
 

 
 
 
CLICK HERE TO GO TO PREVIOUS BULLETINS.

The Nexlab SC Page
The Nexlab GA Page Main Text Page